Location: Unspecified
(0.0000°N, 0.0000°E)
Time: 06:48:25
(UTC+00:00)

S-56A Canister/Altair - Pass Details

Date: 27 May 2024
Orbit: 637 x 2489 km, 38.9° (Epoch: 22 June)

Event Time Altitude Azimuth Distance (km) Brightness Sun altitude
Rises 23:54:41 0° 214° (SW) 5,155 - -68.6°
Reaches altitude 10° 23:57:58 10° 208° (SSW) 4,384 - -68.7°
Maximum altitude 00:10:03 48° 137° (SE) 2,886 - -68.4°
Exits shadow 00:22:02 16° 72° (ENE) 4,638 11.5 -67.8°
Drops below altitude 10° 00:24:15 10° 68° (ENE) 5,126 11.8 -67.7°
Sets 00:28:22 0° 63° (ENE) 6,070 12.3 -67.3°
